STARLINK-4453, 53497

Orbit data source: Space-Track

STARLINK-4453, 53497 is a payload satellite owned by SpaceX/Seattle (US) in SSO that was launched on Fri, 12 Aug 2022 UTC via an FALCON 9 launch vehicle from the Air Force Western Test Range (AFWTR). Payload-class satellites include a variety of spacecraft equipped with specific instruments for various scientific and technological missions. These include communications satellites like Starlink; space stations such as the ISS; scientific satellites like the Hubble; Earth observation satellites from companies like Planet Labs, Umbra, and HawkEye 360; GPS; miniature CubeSats for education and research; and military/defense satellites.

Loading next visibility...
Identifier
53497, 2022-099AJ
Orbit
SSO
Country
Flag of USUS
Related business
Manufacturer
SpaceX/Seattle
Mission
Operational Commercial Communications
Bus & Motor
STARLINK, Unknown motor
Mass
300 kg wet, ~275 kg dry
Launch date (UTC)
2022-08-12 (3 years ago)
Launch vehicle
FALCON 9
Launch site
Air Force Western Test Range (AFWTR)
Object type
Payload
Rocket body
Debris
Shape & HBR
Box + 1 Pan, 10.1 m
Radar Cross Section
13.562 m², Large (>1 m²)

Expand to show TLE details & history
Last TLE update: 14 hours ago

TLE from 14 hours ago
0 STARLINK-4453
1 53497U 22099AJ  25308.57117848 -.00000935  00000-0 -68274-4 0  9999
2 53497  97.6018  67.7116 0002530 214.5442 145.5619 15.01259868177215
Epoch: 2025-11-04T13:42Z
TLE epoch observation values (Epoch: 2025-11-04T13:42:29.820Z)
Latitude
0.00003°
Longitude
178.03105°
Altitude
567.518 km
Speed
7.577 km/s
True Right ascension
04h 30m 50s
True Declination
0° 00' 00"
Sunlit
Object was in full shadow at epoch
Visualization orbit readout
Latitude
Unknown
Longitude
Unknown
Altitude
Unknown
Speed
Unknown
Apparent Right ascension
Unknown
Apparent Declination
Unknown
Sunlit
N/A
Visualization observer readout
Local Sidereal Time
00:01:14
Azimuth
Unknown
Elevation
Unknown
Doppler factor
Unknown
Orbital elements
Apogee altitude
561.765 km
Perigee altitude
558.254 km
Semi-major axis
6,938.147 km
Eccentricity
0.00025
Inclination
97.6018°
RAAN
67.7116°
Arg. of periapsis
214.5442°
True anomaly
145.57829°
Mean anomaly
145.5619°
Eccentric anomaly
145.5701°
Mean motion
3.75559 °/min
Orbital period
95.86 mins
BSTAR
-0.000068274
Loading maneuver chart data...
Computing Atmospheric mass density...
Loading historical data...
Loading historical data...
Loading historical data...
Loading historical data...
Loading historical data...
Loading historical data...
Loading historical data...

Documentation

Showing up to 5 results
|